Regional Weather Roundup
Issued by NWS

Home | Current Version | Previous Version | Graphics & Text | Print | Product List | Glossary On
Versions: 1 2 3 4 5 6 7 8 9 10 11 12 13 14 15 16 17 18 19 20 21 22 23 24 25 26 27 28 29 30 31 32 33 34 35 36 37 38 39 40 41 42 43 44 45 46 47 48 49 50
000
ASUS45 KTFX 272004
RWRMT
MONTANA HOURLY WEATHER ROUNDUP
NATIONAL WEATHER SERVICE GREAT FALLS MT
204 PM MDT FRI MAR 27 2015

NOTE: "FAIR" INDICATES FEW OR NO CLOUDS BELOW 12000 FEET WITH NO
SIGNIFICANT WEATHER AND/OR OBSTRUCTIONS TO VISIBILITY.

* THESE STATIONS ARE NOT UNDER NWS QUALITY CONTROL. THEY DO NOT
   REPORT WEATHER SUCH AS PRECIPITATION OR FOG.

MTZ001>007-043-272100-
WEST OF THE DIVIDE
CITY           SKY/WX    TMP DP  RH WIND       PRES   REMARKS
KALISPELL      SUNNY     59  45  60 S6        30.07F
MISSOULA       SUNNY     59  41  51 CALM      30.11F
BUTTE          SUNNY     64  32  30 NW7       30.14F
MULLAN PASS    SUNNY     54  36  51 VRB7      30.15F
* ESSEX        N/A       62  36  38 S4         N/A
* LINCOLN      N/A       64  37  37 W6G13      N/A
* LOOKOUT PASS N/A       61  40  46 SE4G10     N/A
* POLSON       N/A       63  44  50 S2         N/A
* SEELEY LAKE  N/A       64  40  41 S3G9       N/A
* THOMP F APT  SUNNY     53  34  49 S8G16      N/A
$$

MTZ008-052>055-272100-
SOUTHWEST MONTANA
CITY           SKY/WX    TMP DP  RH WIND       PRES   REMARKS
BOZEMAN        SUNNY     66  36  33 VRB3      30.10F
DILLON         SUNNY     70  28  21 SW18G24   30.11F
* W YELLOWSTON SUNNY     55  34  45 SW5G13     N/A
* BOULDER HILL N/A       61  30  31 N9         N/A
* HOMESTAKE PS N/A       59  31  35 NW6G11     N/A
* MONIDA PASS  N/A       52  34  50 SE20G27    N/A
* RAYNOLDS PAS N/A       51  33  50 S14        N/A
* WHITEHALL    N/A       71  35  27 SW13G22    N/A
* WISE RIVER   N/A       64  30  28 W12G22     N/A
$$

MTZ009>010-012-014-046-048-049-054-272100-
EAST SLOPES AND CENTRAL MONTANA
CITY           SKY/WX    TMP DP  RH WIND       PRES   REMARKS
CUT BANK       CLOUDY    64  30  28 W28G33    29.99F
GREAT FALLS    PTCLDY    72  25  17 W22G31    30.00F
HELENA         PTSUNNY   66  36  33 NE5       30.08F
MALMSTROM AFB  PTCLDY    70  27  20 W23G30    30.00F
* DEARBORN     N/A       66  34  31 S13G22     N/A
* EAST GLACIER N/A       55  32  42 W18G31     N/A
* MONARCH      N/A       63  20  19 W24G29     N/A
* PENDROY      N/A       65  21  18 W15        N/A
* ROGERS PASS  N/A       57  33  40 E14G22     N/A
* SAINT MARY   N/A       56  32  40 S9G25      N/A
$$

MTZ011-013-016-021-035-040-045-047-050-051-272100-
NORTH CENTRAL MONTANA
CITY           SKY/WX    TMP DP  RH WIND       PRES   REMARKS
HAVRE          CLOUDY    70  32  25 W15       29.93F
LEWISTOWN      PTCLDY    70  27  20 W14G26    30.00F
* N BAR RANCH  SUNNY     68  23  18 NW23      30.02F
* CHESTER      N/A       68  28  22 NW17G29    N/A
* DENTON       N/A       72  27  19 NW24G29    N/A
* GEYSER       N/A       69  25  19 W27G32     N/A
* JUDITH GAP   N/A       68  28  22 NW4G17     N/A
* LOMA         N/A       73  24  16 W14G24     N/A
$$

MTZ017>020-022>027-061-062-272100-
NORTHEAST MONTANA
CITY           SKY/WX    TMP DP  RH WIND       PRES   REMARKS
GLASGOW        PTCLDY    66  36  33 W9        29.92F
GLENDIVE       PTCLDY    64  37  37 NW12G17   29.93F
SIDNEY         PTSUNNY   64  36  35 NW12G18   29.92F
WOLF POINT     PTSUNNY   68  36  31 W15G21    29.92F
* BEAVER HILL  N/A       63  34  34 NW20G27    N/A
* CIRCLE       N/A       64  42  45 W5G16      N/A
* LINDSAY DVD  N/A       63  35  35 W13G19     N/A
* NAVAJO       N/A       56  38  51 NW8        N/A
* SACO         N/A       65  40  40 W11G18     N/A
$$

MTZ028>042-056>058-272100-
SOUTHCENTRAL AND SOUTHEAST MONTANA
CITY           SKY/WX    TMP DP  RH WIND       PRES   REMARKS
BAKER          PTCLDY    64  37  37 NW15G24   29.94F
BILLINGS       PTCLDY    75  25  15 NW21G32   30.00F
LIVINGSTON     SUNNY     72  30  21 W23G31    30.07F
MILES CITY     PTSUNNY   70  36  29 NW22      29.95F
* ALZADA       N/A       64  37  37 W16        N/A
* HYSHAM       N/A       69  28  22 W6G17      N/A
* LAME DEER    N/A       64  31  29 NW11G25    N/A
* REED POINT   N/A       70  32  25 W23G30     N/A
* ROSCOE HILL  N/A       73  13  10 SW3G19     N/A
$$

REGIONAL REPORTS...DAKOTAS
CITY           SKY/WX    TMP DP  RH WIND       PRES   REMARKS
WILLISTON      CLOUDY    61  36  39 NW21      29.91F
DICKINSON      PTSUNNY   64  34  33 NW21G31   29.87F
CROSBY         SUNNY     55  36  49 NW18G24   29.90S
WATFORD CITY   SUNNY     57  36  46 N15G25    29.90S
BISMARCK       CLOUDY    45  30  56 S12       29.93F
GRAND FORKS    CLOUDY    34  18  52 S13G20    30.10F WCI  25
FARGO          CLOUDY    36   7  30 S14       30.10F WCI  27
BUFFALO SD     PTCLDY    64  34  33 NW20G30   29.86F
RAPID CITY     PTSUNNY   68  36  31 NW26G36   29.94F
$$

REGIONAL REPORTS...WYOMING/IDAHO/WASHINGTON
CITY           SKY/WX    TMP DP  RH WIND       PRES   REMARKS
GILLETTE       SUNNY     64  36  35 NW17G29   30.02F
SHERIDAN       SUNNY     70  30  23 N18G33    30.01F
CODY           SUNNY     68  28  22 SW13G22   30.09F
YELLOWSTONE LA SUNNY     50  28  43 SW8       30.30F
SALMON         SUNNY    N/A N/A N/A CALM      30.14F
MULLAN PASS    SUNNY     54  36  51 VRB7      30.15S
SAND POINT     PTSUNNY   54  45  72 E3        30.07F
SPOKANE        SUNNY     61  48  62 NE6       30.04F

$$




USA.gov is the U.S. government's official web portal to all federal, state and local government web resources and services.